23.04.2024;12:00;16
23.04.2024;11:00;17
23.04.2024;10:00;17
23.04.2024;09:00;20
23.04.2024;08:00;18
23.04.2024;07:00;16
23.04.2024;06:00;11
23.04.2024;05:00;8
23.04.2024;04:00;6
23.04.2024;03:00;6
23.04.2024;02:00;6
23.04.2024;01:00;7
23.04.2024;00:00;8
22.04.2024;23:00;11
22.04.2024;22:00;14
22.04.2024;21:00;15
22.04.2024;20:00;11
22.04.2024;19:00;11
22.04.2024;18:00;10
22.04.2024;17:00;10
22.04.2024;16:00;10
22.04.2024;15:00;10
22.04.2024;14:00;10
22.04.2024;13:00;9
22.04.2024;12:00;11
22.04.2024;11:00;13
22.04.2024;10:00;17
22.04.2024;09:00;21
22.04.2024;08:00;18
22.04.2024;07:00;16
22.04.2024;06:00;9
22.04.2024;05:00;7
22.04.2024;04:00;9
22.04.2024;03:00;10
22.04.2024;02:00;8
22.04.2024;01:00;7
22.04.2024;00:00;10
21.04.2024;23:00;10
21.04.2024;22:00;8
21.04.2024;21:00;8
21.04.2024;20:00;7
21.04.2024;19:00;9
21.04.2024;18:00;9
21.04.2024;17:00;11
21.04.2024;16:00;11
21.04.2024;15:00;9
21.04.2024;14:00;7
21.04.2024;13:00;8
